FW0924 Weather Reports


time (UTC)temp
C
wind
direction
speed
KPH
gust
KPH
rain 1hr
cm
rain 24hr
cm
rain mn
cm
humidity
%
barometer
mb
20260509090128 13 0.0 0.0 0.00 0.00 0.00 85 1025.7
20260509085047 13 0.0 0.0 0.00 0.00 0.00 83 1025.6
20260509084545 13 0.0 0.0 0.00 0.00 0.00 82 1025.6
20260509084224 13 0.0 0.0 0.00 0.00 0.00 81 1025.5
20260509083643 14 0.0 0.0 0.00 0.00 0.00 80 1025.4
20260509083101 14 0.0 0.0 0.00 0.00 0.00 80 1025.4
20260509082641 14 0.0 0.0 0.00 0.00 0.00 79 1025.2
20260509082059 14 0.0 0.0 0.00 0.00 0.00 78 1025.2
20260509081618 15 0.0 0.0 0.00 0.00 0.00 77 1025.1
20260509081219 15 0.0 0.0 0.00 0.00 0.00 76 1025.0
20260509080536 15 0.0 0.0 0.00 0.00 0.00 75 1025.0
20260509075614 15 0.0 0.0 0.00 0.00 0.00 75 1024.9
20260509075033 15 0.0 0.0 0.00 0.00 0.00 75 1024.9
20260509074632 15 0.0 0.0 0.00 0.00 0.00 74 1024.8
20260509074050 16 0.0 0.0 0.00 0.00 0.00 72 1024.8
20260509073549 16 0.0 0.0 0.00 0.00 0.00 72 1024.7
20260509073048 16 0.0 0.0 0.00 0.00 0.00 71 1024.6
20260509072627 16 0.0 0.0 0.00 0.00 0.00 71 1024.5
20260509072209 16 0.0 0.0 0.00 0.00 0.00 70 1024.5
20260509071645 17 0.0 0.0 0.00 0.00 0.00 69 1024.5
20260509071044 17 0.0 1.6 0.00 0.00 0.00 68 1024.5
20260509070543 17 0.0 1.6 0.00 0.00 0.00 68 1024.4
20260509070042 17 0.0 1.6 0.00 0.00 0.00 67 1024.3
20260509065621 17 0.0 0.0 0.00 0.00 0.00 66 1024.3
20260509065201 18 0.0 0.0 0.00 0.00 0.00 64 1024.2
20260509064619 18 0.0 0.0 0.00 0.00 0.00 63 1024.1
20260509064037 18 45 0.0 4.8 0.00 0.00 0.00 61 1024.0
20260509063616 19 0.0 0.0 0.00 0.00 0.00 59 1024.0
20260509063035 20 0.0 3.2 0.00 0.00 0.00 58 1023.9
20260509062654 20 0.0 1.6 0.00 0.00 0.00 55 1023.8
20260509062113 20 45 0.0 6.4 0.00 0.00 0.00 54 1023.8
20260509061712 21 0.0 3.2 0.00 0.00 0.00 53 1023.8
20260509061131 21 0.0 0.0 0.00 0.00 0.00 51 1023.6
20260509060710 21 0.0 0.0 0.00 0.00 0.00 51 1023.6
20260509060249 21 0.0 3.2 0.00 0.00 0.00 51 1023.6
20260509055607 21 0.0 4.8 0.00 0.00 0.00 51 1023.5
20260509054707 22 0.0 3.2 0.00 0.00 0.00 49 1023.4
20260509054124 21 0.0 3.2 0.00 0.00 0.00 50 1023.4
20260509053703 21 0.0 3.2 0.00 0.00 0.00 50 1023.3
20260509053122 21 0.0 3.2 0.00 0.00 0.00 50 1023.3
20260509052642 21 0.0 1.6 0.00 0.00 0.00 47 1023.2
20260509052240 22 0.0 1.6 0.00 0.00 0.00 42 1023.2
20260509051639 22 0.0 1.6 0.00 0.00 0.00 41 1023.2
20260509051238 22 0.0 4.8 0.00 0.00 0.00 41 1023.3
20260509050558 22 0.0 1.6 0.00 0.00 0.00 42 1023.2
20260509045654 22 0.0 1.6 0.00 0.00 0.00 41 1023.2
20260509045113 22 0.0 0.0 0.00 0.00 0.00 39 1023.2
20260509044652 22 0.0 0.0 0.00 0.00 0.00 38 1023.2
20260509044234 22 0.0 1.6 0.00 0.00 0.00 38 1023.2
20260509043651 22 0.0 3.2 0.00 0.00 0.00 36 1023.3
20260509043109 22 270 0.0 6.4 0.00 0.00 0.00 37 1023.2
20260509042730 22 0.0 1.6 0.00 0.00 0.00 37 1023.3
20260509042107 23 45 0.0 6.4 0.00 0.00 0.00 37 1023.3
20260509041646 23 0.0 3.2 0.00 0.00 0.00 37 1023.2
20260509041104 22 0.0 1.6 0.00 0.00 0.00 38 1023.3
20260509040623 22 0.0 0.0 0.00 0.00 0.00 39 1023.3
20260509040105 21 0.0 1.6 0.00 0.00 0.00 40 1023.2
20260509035641 22 0.0 1.6 0.00 0.00 0.00 38 1023.3
20260509035141 22 0.0 3.2 0.00 0.00 0.00 38 1023.3
20260509034539 22 0.0 0.0 0.00 0.00 0.00 38 1023.2
20260509034058 22 0.0 1.6 0.00 0.00 0.00 38 1023.3
20260509033617 22 0.0 3.2 0.00 0.00 0.00 38 1023.4
20260509033056 22 0.0 1.6 0.00 0.00 0.00 38 1023.4
20260509032635 22 0.0 3.2 0.00 0.00 0.00 39 1023.5
20260509032053 22 0.0 3.2 0.00 0.00 0.00 38 1023.5
20260509031632 22 0.0 1.6 0.00 0.00 0.00 38 1023.5
20260509031152 22 0.0 1.6 0.00 0.00 0.00 38 1023.6
20260509030652 22 0.0 3.2 0.00 0.00 0.00 39 1023.7
20260509025709 22 0.0 3.2 0.00 0.00 0.00 39 1023.9
20260509025027 22 0.0 1.6 0.00 0.00 0.00 39 1023.8
20260509024044 23 270 0.0 4.8 0.00 0.00 0.00 40 1023.9
20260509023543 23 0.0 1.6 0.00 0.00 0.00 41 1024.0
20260509023202 22 225 1.6 6.4 0.00 0.00 0.00 42 1024.0
20260509022603 21 0.0 3.2 0.00 0.00 0.00 41 1024.2
20260509022041 22 0.0 3.2 0.00 0.00 0.00 41 1024.3
20260509021600 22 0.0 1.6 0.00 0.00 0.00 45 1024.3
20260509021138 21 0.0 1.6 0.00 0.00 0.00 45 1024.4
20260509020519 22 0.0 3.2 0.00 0.00 0.00 45 1024.5
20260509015715 21 0.0 1.6 0.00 0.00 0.00 49 1024.5
20260509015134 21 0.0 1.6 0.00 0.00 0.00 49 1024.5
20260509014713 21 0.0 0.0 0.00 0.00 0.00 50 1024.6
20260509014212 20 0.0 1.6 0.00 0.00 0.00 50 1024.7
20260509013610 21 0.0 1.6 0.00 0.00 0.00 49 1024.7
20260509013132 21 0.0 0.0 0.00 0.00 0.00 49 1024.7
20260509012709 21 0.0 1.6 0.00 0.00 0.00 49 1024.7
20260509012127 21 0.0 0.0 0.00 0.00 0.00 50 1024.8
20260509011647 21 0.0 1.6 0.00 0.00 0.00 50 1024.7
20260509011125 21 0.0 1.6 0.00 0.00 0.00 51 1024.7
20260509010644 20 0.0 0.0 0.00 0.00 0.00 52 1024.8
20260509010105 20 0.0 0.0 0.00 0.00 0.00 53 1024.9
20260509005701 20 0.0 3.2 0.00 0.00 0.00 52 1024.9
20260509004659 20 0.0 1.6 0.00 0.00 0.00 52 1025.0
20260509004118 20 0.0 1.6 0.00 0.00 0.00 53 1025.0
20260509003657 19 0.0 1.6 0.00 0.00 0.00 54 1025.1
20260509003116 19 0.0 3.2 0.00 0.00 0.00 53 1025.0
20260509002655 19 0.0 1.6 0.00 0.00 0.00 54 1025.1
20260509002114 19 0.0 1.6 0.00 0.00 0.00 53 1025.1
20260509001635 20 0.0 0.0 0.00 0.00 0.00 54 1025.1
20260509001211 19 0.0 0.0 0.00 0.00 0.00 55 1025.1
20260509000550 -17 0.0 0.0 0.00 0.00 0.00 1025.1
20260509000211 -17 0.0 0.0 0.00 0.00 0.00 1025.1
20260508235107 -17 0.0 0.0 0.00 0.00 0.00 1025.1
20260508234647 -17 0.0 0.0 0.00 0.00 0.00 1025.2
20260508234105 -17 0.0 0.0 0.00 0.00 0.00 1025.2
20260508233624 -17 0.0 0.0 0.00 0.00 0.00 1025.2
20260508233103 -17 0.0 0.0 0.00 0.00 0.00 1025.1
20260508232642 -17 0.0 0.0 0.00 0.00 0.00 1025.1
20260508232100 -17 0.0 0.0 0.00 0.00 0.00 1025.2
20260508231639 -17 0.0 0.0 0.00 0.00 0.00 1025.2
20260508231058 -17 0.0 0.0 0.00 0.00 0.00 1025.2
20260508230619 -17 0.0 0.0 0.00 0.00 0.00 1025.1
20260508230157 -17 0.0 0.0 0.00 0.00 0.00 1025.2
20260508225054 -17 0.0 0.0 0.00 0.00 0.00 1025.1
20260508224633 -17 0.0 0.0 0.00 0.00 0.00 1025.1
20260508224052 -17 0.0 0.0 0.00 0.00 0.00 1025.1
20260508223630 -17 0.0 0.0 0.00 0.00 0.00 1025.1
20260508223049 -17 0.0 0.0 0.00 0.00 0.00 1025.0
20260508222628 -17 0.0 0.0 0.00 0.00 0.00 1025.0
20260508222209 -17 0.0 0.0 0.00 0.00 0.00 1025.0
20260508221627 -17 0.0 0.0 0.00 0.00 0.00 1024.9
20260508221045 -17 0.0 0.0 0.00 0.00 0.00 1024.8
20260508220624 -17 0.0 0.0 0.00 0.00 0.00 1024.8
20260508220043 -17 0.0 0.0 0.00 0.00 0.00 1024.8
20260508215602 -17 0.0 0.0 0.00 0.00 0.00 1024.8
20260508215041 -17 0.0 0.0 0.00 0.00 0.00 1024.7
20260508214621 -17 0.0 0.0 0.00 0.00 0.00 1024.6
20260508214038 -17 0.0 0.0 0.00 0.00 0.00 1024.5
20260508213617 -17 0.0 0.0 0.00 0.00 0.00 1024.4
20260508213159 -17 0.0 0.0 0.00 0.00 0.00 1024.3
20260508212515 -17 0.0 0.0 0.00 0.00 0.00 1024.3
20260508212134 -17 0.0 0.0 0.00 0.00 0.00 1024.2
20260508211713 -17 0.0 0.0 0.00 0.00 0.00 1024.1
20260508211132 -17 0.0 0.0 0.00 0.00 0.00 1024.0
20260508210712 -17 0.0 0.0 0.00 0.00 0.00 1024.0
20260508210152 -17 0.0 0.0 0.00 0.00 0.00 1024.0
20260508205127 10 0.0 0.0 0.00 0.00 0.00 89 1023.9
20260508204706 10 0.0 0.0 0.00 0.00 0.00 89 1023.8
20260508204125 10 0.0 0.0 0.00 0.00 0.00 89 1023.8
20260508203706 10 0.0 0.0 0.00 0.00 0.00 89 1023.8
20260508203123 10 0.0 0.0 0.00 0.00 0.00 88 1023.7
20260508202644 10 0.0 0.0 0.00 0.00 0.00 88 1023.7
20260508202101 10 0.0 0.0 0.00 0.00 0.00 87 1023.6
20260508201701 10 0.0 0.0 0.00 0.00 0.00 86 1023.5
20260508201240 10 0.0 0.0 0.00 0.00 0.00 85 1023.5
20260508200557 11 0.0 0.0 0.00 0.00 0.00 85 1023.4
20260508195657 11 0.0 0.0 0.00 0.00 0.00 84 1023.2
20260508195235 11 0.0 0.0 0.00 0.00 0.00 84 1023.2
20260508194654 11 0.0 0.0 0.00 0.00 0.00 84 1023.2
20260508194152 12 0.0 0.0 0.00 0.00 0.00 83 1023.1
20260508193551 12 0.0 0.0 0.00 0.00 0.00 83 1023.0
20260508192630 12 0.0 0.0 0.00 0.00 0.00 83 1022.8
20260508192108 12 0.0 0.0 0.00 0.00 0.00 83 1022.8
20260508191606 12 0.0 0.0 0.00 0.00 0.00 83 1022.8
20260508191105 12 0.0 0.0 0.00 0.00 0.00 84 1022.8
20260508190646 12 0.0 0.0 0.00 0.00 0.00 84 1022.8
20260508190204 12 0.0 0.0 0.00 0.00 0.00 84 1022.8
20260508185141 11 0.0 0.0 0.00 0.00 0.00 85 1022.7
20260508184621 11 0.0 0.0 0.00 0.00 0.00 85 1022.6
20260508184059 11 0.0 0.0 0.00 0.00 0.00 85 1022.6
20260508183618 11 0.0 0.0 0.00 0.00 0.00 85 1022.5
20260508183057 11 0.0 0.0 0.00 0.00 0.00 84 1022.5
20260508182556 11 0.0 0.0 0.00 0.00 0.00 84 1022.5
20260508182055 11 0.0 0.0 0.00 0.00 0.00 84 1022.5
20260508181633 11 0.0 0.0 0.00 0.00 0.00 84 1022.4
20260508181212 11 0.0 0.0 0.00 0.00 0.00 84 1022.3
20260508180531 11 0.0 0.0 0.00 0.00 0.00 84 1022.3
20260508180151 11 0.0 0.0 0.00 0.00 0.00 85 1022.2
20260508175530 11 0.0 0.0 0.00 0.00 0.00 85 1022.2
20260508175050 11 0.0 0.0 0.00 0.00 0.00 85 1022.3
20260508174607 11 0.0 0.0 0.00 0.00 0.00 85 1022.2
20260508174047 11 0.0 0.0 0.00 0.00 0.00 85 1022.3
20260508173605 11 0.0 0.0 0.00 0.00 0.00 85 1022.3
20260508173043 11 0.0 0.0 0.00 0.00 0.00 85 1022.4
20260508172642 11 0.0 0.0 0.00 0.00 0.00 85 1022.4
20260508171521 11 0.0 0.0 0.00 0.00 0.00 86 1022.3
20260508171039 11 0.0 0.0 0.00 0.00 0.00 87 1022.3
20260508170639 11 0.0 0.0 0.00 0.00 0.00 87 1022.3
20260508164614 10 0.0 0.0 0.00 0.00 0.00 87 1022.4
20260508164214 10 0.0 0.0 0.00 0.00 0.00 87 1022.4
20260508163651 10 0.0 0.0 0.00 0.00 0.00 87 1022.4
20260508163231 10 0.0 0.0 0.00 0.00 0.00 87 1022.3
20260508162609 10 0.0 0.0 0.00 0.00 0.00 86 1022.3
20260508161729 10 0.0 0.0 0.00 0.00 0.00 85 1022.3
20260508161128 10 0.0 0.0 0.00 0.00 0.00 85 1022.2
20260508160706 10 0.0 0.0 0.00 0.00 0.00 85 1022.3
20260508160124 10 0.0 0.0 0.00 0.00 0.00 84 1022.4
20260508155704 10 0.0 0.0 0.00 0.00 0.00 84 1022.2
20260508155122 10 0.0 0.0 0.00 0.00 0.00 84 1022.3
20260508154701 11 0.0 0.0 0.00 0.00 0.00 83 1022.3
20260508154220 11 0.0 0.0 0.00 0.00 0.00 82 1022.2
20260508153238 11 0.0 0.0 0.00 0.00 0.00 81 1022.2
20260508152657 11 0.0 0.0 0.00 0.00 0.00 81 1022.2
20260508152115 11 0.0 0.0 0.00 0.00 0.00 81 1022.2
20260508151636 11 0.0 0.0 0.00 0.00 0.00 80 1022.2
20260508151113 11 0.0 0.0 0.00 0.00 0.00 80 1022.3
20260508150632 11 0.0 0.0 0.00 0.00 0.00 80 1022.3
20260508150111 11 0.0 0.0 0.00 0.00 0.00 79 1022.3
20260508145610 12 0.0 0.0 0.00 0.00 0.00 79 1022.2
20260508145111 12 0.0 0.0 0.00 0.00 0.00 79 1022.2
20260508144627 12 0.0 0.0 0.00 0.00 0.00 79 1022.2
20260508144106 12 0.0 0.0 0.00 0.00 0.00 79 1022.3
20260508143545 12 0.0 0.0 0.00 0.00 0.00 78 1022.3
20260508143104 12 0.0 0.0 0.00 0.00 0.00 78 1022.4
20260508142643 12 0.0 0.0 0.00 0.00 0.00 78 1022.4
20260508142102 12 0.0 0.0 0.00 0.00 0.00 78 1022.4
20260508141642 12 0.0 0.0 0.00 0.00 0.00 78 1022.4
20260508141100 12 0.0 0.0 0.00 0.00 0.00 78 1022.4
20260508140639 12 0.0 0.0 0.00 0.00 0.00 78 1022.3
20260508140218 12 0.0 0.0 0.00 0.00 0.00 78 1022.2
20260508135035 12 0.0 0.0 0.00 0.00 0.00 78 1022.1
20260508134053 12 0.0 0.0 0.00 0.00 0.00 78 1022.2
20260508133612 12 0.0 0.0 0.00 0.00 0.00 78 1022.1
20260508133051 12 0.0 0.0 0.00 0.00 0.00 78 1022.2
20260508132630 12 0.0 0.0 0.00 0.00 0.00 77 1022.1
20260508132151 12 0.0 0.0 0.00 0.00 0.00 78 1022.2
20260508131527 12 0.0 0.0 0.00 0.00 0.00 78 1022.2
20260508130525 12 0.0 0.0 0.00 0.00 0.00 77 1022.2
20260508124701 12 0.0 0.0 0.00 0.00 0.00 76 1022.3
20260508124121 12 0.0 0.0 0.00 0.00 0.00 76 1022.3
20260508123620 12 0.0 0.0 0.00 0.00 0.00 76 1022.2
20260508123138 12 0.0 1.6 0.00 0.00 0.00 76 1022.1
20260508122516 12 0.0 0.0 0.00 0.00 0.00 76 1022.2
20260508121656 12 0.0 0.0 0.00 0.00 0.00 75 1022.2
20260508121114 12 0.0 0.0 0.00 0.00 0.00 75 1022.2
20260508120713 12 0.0 0.0 0.00 0.00 0.00 75 1022.2
20260508120131 12 0.0 0.0 0.00 0.00 0.00 75 1022.2
20260508115752 12 0.0 0.0 0.00 0.00 0.00 75 1022.2
20260508115109 12 0.0 0.0 0.00 0.00 0.00 74 1022.3
20260508114608 12 0.0 0.0 0.00 0.00 0.00 74 1022.2
20260508113605 12 0.0 0.0 0.00 0.00 0.00 74 1022.1
20260508112122 12 0.0 0.0 0.00 0.00 0.00 74 1022.0
20260508111621 12 0.0 0.0 0.00 0.00 0.00 74 1021.8
20260508111121 13 0.0 0.0 0.00 0.00 0.00 74 1021.8
20260508110640 13 0.0 0.0 0.00 0.00 0.00 74 1021.8
20260508110118 13 0.0 0.0 0.00 0.00 0.00 74 1021.7
20260508105719 13 0.0 1.6 0.00 0.00 0.00 74 1021.6
20260508105117 13 0.0 1.6 0.00 0.00 0.00 74 1021.6
20260508104655 13 0.0 0.0 0.00 0.00 0.00 73 1021.7
20260508104113 13 0.0 0.0 0.00 0.00 0.00 73 1021.7
20260508103655 13 0.0 0.0 0.00 0.00 0.00 73 1021.6
20260508103111 13 0.0 0.0 0.00 0.00 0.00 73 1021.6
20260508102631 13 0.0 0.0 0.00 0.00 0.00 73 1021.6
20260508102231 13 0.0 0.0 0.00 0.00 0.00 72 1021.4
20260508101548 13 0.0 0.0 0.00 0.00 0.00 72 1021.3
20260508100627 13 0.0 0.0 0.00 0.00 0.00 72 1021.2
20260508095644 13 0.0 0.0 0.00 0.00 0.00 71 1021.2
20260508095123 13 0.0 1.6 0.00 0.00 0.00 71 1021.2
20260508094040 13 0.0 0.0 0.00 0.00 0.00 70 1021.0
20260508093559 13 0.0 0.0 0.00 0.00 0.00 70 1021.0
20260508093058 13 0.0 0.0 0.00 0.00 0.00 69 1020.9
20260508092057 14 0.0 0.0 0.00 0.00 0.00 68 1020.8
20260508090655 14 0.0 1.6 0.00 0.00 0.00 67 1020.6